Regional Weather Roundup
Issued by NWS

Home | Current Version | Previous Version | Graphics & Text | Print | Product List | Glossary On
Versions: 1 2 3 4 5 6 7 8 9 10 11 12 13 14 15 16 17 18 19 20 21 22 23 24 25 26 27 28 29 30 31 32 33 34 35 36 37 38 39 40 41 42 43 44 45 46 47 48 49 50
000
ASUS43 KDMX 240507
RWRIA

WEATHER ROUNDUP FOR IOWA
NATIONAL WEATHER SERVICE DES MOINES IA
1100 PM CST TUE DEC 23 2014

NOTE: "FAIR" INDICATES FEW OR NO CLOUDS BELOW 12,000 FEET WITH NO
SIGNIFICANT WEATHER AND/OR OBSTRUCTIONS TO VISIBILITY.

* - THESE STATIONS ARE NOT NWS STATIONS...THUS NOT UNDER NWS
QUALITY CONTROL.  THEY ALSO DO NOT REPORT WEATHER SUCH
AS PRECIPITATION OR FOG.

IAZ001>003-012>014-020>022-031>034-043>046-240600-
   NORTHWEST IOWA

CITY           SKY/WX    TMP DP  RH WIND       PRES   REMARKS
CARROLL *      LGT SNOW  34  34 100 NW14      29.86R WCI  24
CHEROKEE *     CLOUDY    34  34 100 N14       29.90R WCI  24
DENISON *      CLOUDY    34  34 100 N17       29.86S WCI  23
LE MARS *      MIX PCPN  34  34 100 N13G18    29.95R WCI  25
ORANGE CITY *  LGT SNOW  34  32  93 N12       29.93R WCI  25
SHELDON *      CLOUDY    34  34 100 N16G22    29.91R WCI  23
SIOUX CITY     CLOUDY    35  32  88 NW18      29.94R FOG     WCI  24
SPENCER        MIX PCPN  34  31  88 N21       29.89R WCI  22
STORM LAKE *   CLOUDY    34  32  93 N23G29    29.87S WCI  22
$$

IAZ055>058-069>071-079>083-090>094-240600-
   SOUTHWEST IOWA

CITY           SKY/WX    TMP DP  RH WIND       PRES   REMARKS
ATLANTIC *     LGT RAIN  34  34 100 N13       29.86S WCI  25
AUDUBON *      MIX PCPN  34  28  80 N9        29.86S WCI  26
CLARINDA *     LGT RAIN  34  34 100 NW10      29.88S WCI  26
COUNCIL BLFS * MIX PCPN  34  34 100 N15G24    29.88S WCI  24
CRESTON *      LGT SNOW  34  34 100 N12       29.82F WCI  25
HARLAN  *      MIX PCPN  34  34 100 N18G24    29.91R WCI  23
LAMONI         CLOUDY    35  32  88 N13       29.81F WCI  26
RED OAK *      CLOUDY    36  34  93 N12G18    29.87F FOG     WCI  27
SHENANDOAH *   CLOUDY    36  36 100 NW12G17   29.89S FOG     WCI  27
$$

IAZ047>049-059>061-072>074-084-240600-
   CENTRAL IOWA

CITY           SKY/WX    TMP DP  RH WIND       PRES   REMARKS
AMES           LGT SNOW  33  31  92 NW10      29.81F FOG     WCI  25
ANKENY *       LGT SNOW  34  34 100 NW12      29.81F WCI  25
CHARITON *     CLOUDY    34  32  93 NW10G16   29.80S WCI  26
DES MOINES     LGT SNOW  34  32  92 NW9       29.82S VSB 1   WCI  27
GRINNELL*      CLOUDY    34  32  93 NW8       29.78F FOG     WCI  27
KNOXVILLE *    CLOUDY    34  32  93 NW13      29.78F WCI  25
MARSHALLTOWN   LGT SNOW  32  32 100 NW8       29.78S FOG     WCI  25
PELLA *        CLOUDY    34  33  96 NW10      29.80F WCI  26
PERRY *        LGT SNOW  34  34 100 NW12      29.83F WCI  25
$$

IAZ004>006-015-016-023>025-035-036-240600-
   NORTH CENTRAL IOWA

CITY           SKY/WX    TMP DP  RH WIND       PRES   REMARKS
ALGONA *       CLOUDY    34  34 100 N16G23    29.83S WCI  23
CLARION *      LGT SNOW  34  34 100 N8        29.82R WCI  27
ESTHERVILLE    CLOUDY    33  32  96 N18       29.86R WCI  22
FORT DODGE *   CLOUDY    34  30  86 N7        29.84S WCI  28
MASON CITY     CLOUDY    34  32  92 N15       29.81S WCI  24
FOREST CITY *  CLOUDY    34  32  93 N14G21    29.82R WCI  24
IOWA FALLS *   LGT SNOW  34  32  93 NW9       29.80S WCI  26
$$

IAZ007>011-017>019-026>030-037>042-050>054-066-240600-
   NORTHEAST IOWA

CITY           SKY/WX    TMP DP  RH WIND       PRES   REMARKS
CEDAR RAPIDS   CLOUDY    34  34 100 NW9       29.75F FOG     WCI  27
CHARLES CITY * CLOUDY    34  34 100 N9        29.79S WCI  26
CLINTON *      CLOUDY    37  34  87 W6        29.77F WCI  33
DECORAH *      CLOUDY    34  34 100 N8        29.76R FOG     WCI  27
DUBUQUE        CLOUDY    34  34 100 NW5       29.74S WCI  30
MONTICELLO *   CLOUDY    34  34 100 NW5       29.75F WCI  30
OELWEIN *      CLOUDY    34  34 100 N8        29.77S FOG     WCI  27
WATERLOO       LGT SNOW  33  33 100 NW7       29.78S FOG     WCI  27
$$

IAZ064-065-067-068-078-240600-
   EAST CENTRAL IOWA

CITY           SKY/WX    TMP DP  RH WIND       PRES   REMARKS
DAVENPORT      CLOUDY    37  35  92 W8        29.76S FOG     WCI  31
IOWA CITY      CLOUDY    36  34  92 NW8       29.78S WCI  30
MT. PLEASANT * CLOUDY    37  37 100 W5        29.77F WCI  34
MUSCATINE *    CLOUDY    39  36  87 NW7       29.77F WCI  34
QUAD CITIES    CLOUDY    38  34  85 W6        29.76S WCI  33
$$

IAZ062-063-075>077-085>089-095>099-240600-
   SOUTHEAST IOWA

CITY           SKY/WX    TMP DP  RH WIND       PRES   REMARKS
BURLINGTON     CLOUDY    38  34  85 NW5       29.74F WCI  34
FAIRFIELD *    CLOUDY    36  34  93 NW7       29.77F WCI  30
FORT MADISON * CLOUDY    39  36  87 W6        29.76F WCI  35
KEOKUK *       CLOUDY    39  36  87 W8        29.75F WCI  34
OSKALOOSA *    CLOUDY    34  34 100 NW9       29.78F FOG     WCI  26
CENTERVILLE *  CLOUDY    36  36 100 NW8       29.79F WCI  29
OTTUMWA        CLOUDY    35  34  96 NW12      29.77F WCI  27
WASHINGTON *   CLOUDY    37  37 100 NW7       29.77S WCI  32
$$

ABBREVIATIONS USED IN REMARKS
   TC - TEMPERATURES IN CELSIUS
  WCI - WIND CHILL INDEX
   HX - HEAT INDEX
  VSB - VISIBILITY
$$



USA.gov is the U.S. government's official web portal to all federal, state and local government web resources and services.